Starlink 31899

operational
NORAD ID: 59850 Int'l Des: 2024-097 Owner: SPXS Country: US Constellation: starlink
LEOCIRCULAR

About Starlink 31899

Description loading...

Live Position

Loading 3D Globe...

Upcoming Passes

Altitude History

Altitude vs Time

uPlot chart will show altitude changes over time

Two-Line Element Set

1 59850U 24097R 25259.21282460 -.00001050 00000-0 -28647-4 0 9996
2 59850 43.0008 179.6420 0001075 270.3858 89.6870 15.27571902 75233
Epoch: Sep 16, 2025 • Age: 10 hours

Current Status

Altitude 483.9 km
Velocity 7.63 km/s
Sub-Earth Point 28.24°N, 4.19°W
Launch Date May 23, 2024
Age 1.3 years
Type internet

Technical Details

Classification Payload
Mass 730.00 kg
Dry Mass 700.00 kg
Total Mass 730.00 kg
Length 0.30 m
Diameter 4.10 m
Span 29.00 m
Shape Box + pan
Manufacturer SPXS
Bus Type Starlink V2M
Phase Status In Orbit
Owner/State SPXS/US

Large Constellations

Loading constellations...